Overview Statistics Trail Chart Weather Telemetry Raw packets
 

This is the latest recevied weather packets stored in our database for station/object VK4TW-13. If no packets are shown the sender has not sent any weather packets the latest 10 day(s).

<< 13 14 15 16 17 18 19 >>
Time Temp. Humidity Pressure Rain* Wind** Luminosity Snow
1788474183 22.22° C 100% 1022.7 hPa 0 mm - - -
1788473582 21.67° C 100% 1022.6 hPa 0 mm - - -
1788472981 21.11° C 100% 1022.6 hPa 0 mm - - -
1788472380 20° C 100% 1022.5 hPa 0 mm - - -
1788471780 18.89° C 100% 1022.3 hPa 0 mm - - -
1788471179 17.78° C 100% 1022.2 hPa 0 mm - - -
1788470577 17.22° C 100% 1022 hPa 0 mm - - -
1788469977 16.11° C 100% 1022.1 hPa 0 mm - - -
1788469376 15.56° C 100% 1021.8 hPa 0 mm - - -
1788468775 15.56° C 100% 1021.7 hPa 0 mm - - -
1788468174 15.56° C 100% 1021.6 hPa 0 mm - - -
1788467573 15° C 100% 1021.5 hPa 0 mm - - -
1788466973 15° C 100% 1021.3 hPa 0 mm - - -
1788466371 15° C 100% 1021.2 hPa 0 mm - - -
1788465770 15° C 100% 1021.1 hPa 0 mm - - -
1788465170 15° C 100% 1020.9 hPa 0 mm - - -
1788464569 15° C 100% 1020.8 hPa 0 mm - - -
1788463989 15° C 100% 1020.7 hPa 0 mm - - -
1788463367 15° C 100% 1020.6 hPa 0 mm - - -
1788462766 15.56° C 100% 1020.5 hPa 0 mm - - -
1788462166 15.56° C 100% 1020.4 hPa 0 mm - - -
1788461564 15° C 100% 1020.3 hPa 0 mm - - -
1788460963 15.56° C 100% 1020.2 hPa 0 mm - - -
1788460363 15.56° C 100% 1020 hPa 0 mm - - -
1788460023 15.56° C 100% 1020 hPa 0 mm - - -

* Rain since midnight (hover to see other rain measurements)
** Current wind speed in m/s (hover to see current wind gust speed)